カタログに戻る

COSMOS 2251 DEB

運用中LEO
NORAD 47051·DEBRIS·🇷🇺 Russia

打ち上げ Jun 16, 1993 から Plesetsk Cosmodrome

Loading…

次のパス (今後24時間)

TLE

最新Source: Space-Track

元期: Sep 14, 2026, 05:51 UTC

1 47051U 93036BXF 26257.24411172  .00000994  00000-0  79613-3 0  9993
2 47051  74.0973  92.9523 0341784 141.9918 340.6720 13.67896745637047

AllMySatでCOSMOS 2251 DEBをリアルタイム追跡

Download on the App Store